TimeADT,TemperatureF,Dew PointF,Humidity,Sea Level PressureIn,VisibilityMPH,Wind Direction,Wind SpeedMPH,Gust SpeedMPH,PrecipitationIn,Events,Conditions,WindDirDegrees,DateUTC
12:00 AM,41,39,92,29.97,,NW,6.9,,,,,310,2012-10-18 03:00:00
12:00 AM,40.6,39.4,95,29.97,-9999.0,NW,6.9,-,N/A,,Unknown,310,2012-10-18 03:00:00
1:00 AM,40.3,38.7,94,29.99,-9999.0,NW,8.1,-,N/A,,Unknown,310,2012-10-18 04:00:00
2:00 AM,40.6,38.1,91,30.01,-9999.0,NW,8.1,-,N/A,,Unknown,320,2012-10-18 05:00:00
3:00 AM,40,38,88,30.03,,NW,8.1,,,,,310,2012-10-18 06:00:00
3:00 AM,39.7,37.6,92,30.03,-9999.0,NW,8.1,-,N/A,,Unknown,310,2012-10-18 06:00:00
4:00 AM,39.9,37.4,91,30.04,-9999.0,NW,8.1,-,N/A,,Unknown,310,2012-10-18 07:00:00
5:00 AM,38.8,36.7,92,30.06,-9999.0,NW,6.9,-,N/A,,Unknown,310,2012-10-18 08:00:00
6:00 AM,39,37,88,30.07,,NNW,5.8,,,,,330,2012-10-18 09:00:00
6:00 AM,39.4,36.7,90,30.07,-9999.0,NNW,5.8,-,N/A,,Unknown,330,2012-10-18 09:00:00
7:00 AM,39.4,36.9,91,30.09,-9999.0,NW,6.9,-,N/A,,Unknown,320,2012-10-18 10:00:00
8:00 AM,38.7,36.3,91,30.12,-9999.0,NW,6.9,-,N/A,,Unknown,320,2012-10-18 11:00:00
9:00 AM,42,40,91,30.16,,NW,6.9,,,,,320,2012-10-18 12:00:00
9:00 AM,42.1,40.3,93,30.16,-9999.0,NW,6.9,-,N/A,,Unknown,320,2012-10-18 12:00:00
10:00 AM,46.0,43.3,90,30.17,-9999.0,NNE,2.3,-,N/A,,Unknown,20,2012-10-18 13:00:00
11:00 AM,49.1,43.2,80,30.18,-9999.0,ENE,3.5,-,N/A,,Unknown,70,2012-10-18 14:00:00
12:00 PM,51,43,65,30.18,,East,3.5,,,,,90,2012-10-18 15:00:00
12:00 PM,51.3,42.6,72,30.18,-9999.0,East,3.5,-,N/A,,Unknown,90,2012-10-18 15:00:00
1:00 PM,52.7,44.1,72,30.17,-9999.0,SE,4.6,-,N/A,,Unknown,130,2012-10-18 16:00:00
2:00 PM,54.0,45.7,74,30.18,-9999.0,South,5.8,-,N/A,,Unknown,180,2012-10-18 17:00:00
3:00 PM,55,46,64,30.18,,South,8.1,,,,,190,2012-10-18 18:00:00
3:00 PM,54.9,46.4,73,30.18,-9999.0,South,8.1,-,N/A,,Unknown,190,2012-10-18 18:00:00
4:00 PM,54.7,46.9,75,30.18,-9999.0,South,5.8,-,N/A,,Unknown,190,2012-10-18 19:00:00
5:00 PM,53.4,46.0,76,30.18,-9999.0,South,4.6,-,N/A,,Unknown,190,2012-10-18 20:00:00
6:00 PM,51,45,74,30.19,,SW,5.8,,,,,220,2012-10-18 21:00:00
6:00 PM,50.7,45.1,81,30.19,-9999.0,SW,5.8,-,N/A,,Unknown,220,2012-10-18 21:00:00
7:00 PM,47.7,44.4,89,30.21,-9999.0,SSW,5.8,-,N/A,,Unknown,210,2012-10-18 22:00:00
8:00 PM,44.1,41.5,91,30.22,-9999.0,SW,4.6,-,N/A,,Unknown,230,2012-10-18 23:00:00
9:00 PM,43.2,41.2,93,30.22,-9999.0,WSW,4.6,-,N/A,,Unknown,240,2012-10-19 00:00:00
10:00 PM,42.1,39.9,92,30.23,-9999.0,SW,3.5,-,N/A,,Unknown,230,2012-10-19 01:00:00
11:00 PM,43.5,41.7,93,30.24,-9999.0,WSW,5.8,-,N/A,,Unknown,250,2012-10-19 02:00:00